TimeCDT,TemperatureF,Dew PointF,Humidity,Sea Level PressureIn,VisibilityMPH,Wind Direction,Wind SpeedMPH,Gust SpeedMPH,PrecipitationIn,Events,Conditions,WindDirDegrees,DateUTC
12:15 AM,62.6,62.6,100,30.27,10.0,Calm,Calm,-,N/A,,Overcast,0,2012-10-13 05:15:00
12:35 AM,62.6,62.6,100,30.26,10.0,Calm,Calm,-,N/A,,Overcast,0,2012-10-13 05:35:00
1:15 AM,62.6,62.6,100,30.25,7.0,Calm,Calm,-,N/A,,Overcast,0,2012-10-13 06:15:00
2:15 AM,60.8,60.8,100,30.25,7.0,Calm,Calm,-,N/A,,Clear,0,2012-10-13 07:15:00
2:35 AM,60.8,60.8,100,30.25,10.0,Calm,Calm,-,N/A,,Clear,0,2012-10-13 07:35:00
3:35 AM,62.6,62.6,100,30.26,10.0,Calm,Calm,-,N/A,,Overcast,0,2012-10-13 08:35:00
3:55 AM,62.6,62.6,100,30.26,10.0,Calm,Calm,-,N/A,,Mostly Cloudy,0,2012-10-13 08:55:00
4:15 AM,60.8,60.8,100,30.26,10.0,Calm,Calm,-,N/A,,Mostly Cloudy,0,2012-10-13 09:15:00
4:35 AM,60.8,60.8,100,30.26,7.0,Calm,Calm,-,N/A,,Scattered Clouds,0,2012-10-13 09:35:00
5:35 AM,60.8,60.8,100,30.26,1.5,SSE,3.5,-,N/A,,Mist,150,2012-10-13 10:35:00
5:55 AM,60.8,60.8,100,30.26,10.0,SE,4.6,-,N/A,,Clear,130,2012-10-13 10:55:00
6:15 AM,60.8,60.8,100,30.26,10.0,SE,3.5,-,N/A,,Clear,130,2012-10-13 11:15:00
6:35 AM,60.8,60.8,100,30.26,10.0,Calm,Calm,-,N/A,,Scattered Clouds,0,2012-10-13 11:35:00
6:55 AM,60.8,60.8,100,30.26,10.0,SE,3.5,-,N/A,,Overcast,140,2012-10-13 11:55:00
7:15 AM,62.6,60.8,94,30.26,10.0,SE,5.8,-,N/A,,Overcast,130,2012-10-13 12:15:00
7:55 AM,62.6,60.8,94,30.27,10.0,SE,5.8,-,N/A,,Overcast,140,2012-10-13 12:55:00
8:15 AM,64.4,60.8,88,30.28,10.0,SE,6.9,-,N/A,,Overcast,140,2012-10-13 13:15:00
8:35 AM,64.4,60.8,88,30.29,10.0,SE,9.2,-,N/A,,Overcast,140,2012-10-13 13:35:00
8:55 AM,66.2,60.8,83,30.29,10.0,SSE,9.2,16.1,N/A,,Overcast,150,2012-10-13 13:55:00
9:15 AM,66.2,60.8,83,30.30,10.0,SE,10.4,-,N/A,,Overcast,140,2012-10-13 14:15:00
9:35 AM,68.0,60.8,78,30.29,10.0,SSE,8.1,-,N/A,,Overcast,150,2012-10-13 14:35:00
9:55 AM,68.0,60.8,78,30.30,10.0,SE,11.5,18.4,N/A,,Overcast,140,2012-10-13 14:55:00
10:15 AM,68.0,60.8,78,30.29,10.0,SSE,11.5,-,N/A,,Overcast,150,2012-10-13 15:15:00
10:55 AM,69.8,60.8,73,30.28,10.0,SSE,10.4,19.6,N/A,,Overcast,150,2012-10-13 15:55:00
11:35 AM,71.6,60.8,69,30.28,10.0,SE,6.9,-,N/A,,Overcast,140,2012-10-13 16:35:00
11:55 AM,73.4,60.8,65,30.27,10.0,SSE,10.4,-,N/A,,Overcast,160,2012-10-13 16:55:00
12:15 PM,73.4,60.8,65,30.26,10.0,SE,9.2,-,N/A,,Mostly Cloudy,140,2012-10-13 17:15:00
12:35 PM,73.4,60.8,65,30.25,10.0,SSE,11.5,17.3,N/A,,Mostly Cloudy,150,2012-10-13 17:35:00
12:55 PM,73.4,60.8,65,30.24,10.0,SSE,10.4,17.3,N/A,,Mostly Cloudy,160,2012-10-13 17:55:00
1:15 PM,77.0,60.8,57,30.23,10.0,SSE,11.5,16.1,N/A,,Scattered Clouds,160,2012-10-13 18:15:00
1:35 PM,77.0,60.8,57,30.22,10.0,SSE,8.1,18.4,N/A,,Scattered Clouds,160,2012-10-13 18:35:00
1:55 PM,77.0,60.8,57,30.21,10.0,South,9.2,18.4,N/A,,Mostly Cloudy,170,2012-10-13 18:55:00
2:15 PM,77.0,60.8,57,30.20,10.0,SE,6.9,-,N/A,,Overcast,140,2012-10-13 19:15:00
2:35 PM,77.0,60.8,57,30.20,10.0,SSE,6.9,-,N/A,,Overcast,150,2012-10-13 19:35:00
2:55 PM,75.2,60.8,61,30.19,10.0,SSE,8.1,-,N/A,,Mostly Cloudy,150,2012-10-13 19:55:00
3:15 PM,77.0,60.8,57,30.18,10.0,SSE,15.0,18.4,N/A,,Mostly Cloudy,150,2012-10-13 20:15:00
3:35 PM,75.2,62.6,65,30.18,10.0,South,6.9,-,N/A,,Mostly Cloudy,180,2012-10-13 20:35:00
3:55 PM,77.0,62.6,61,30.18,10.0,SSE,8.1,-,N/A,,Mostly Cloudy,160,2012-10-13 20:55:00
4:15 PM,77.0,60.8,57,30.17,10.0,SSE,9.2,-,N/A,,Scattered Clouds,160,2012-10-13 21:15:00
4:55 PM,77.0,62.6,61,30.16,10.0,SSE,9.2,-,N/A,,Scattered Clouds,160,2012-10-13 21:55:00
5:15 PM,77.0,62.6,61,30.16,10.0,SSE,8.1,-,N/A,,Scattered Clouds,150,2012-10-13 22:15:00
5:35 PM,75.2,62.6,65,30.16,10.0,SE,3.5,-,N/A,,Mostly Cloudy,130,2012-10-13 22:35:00
5:55 PM,73.4,62.6,69,30.16,10.0,SE,4.6,-,N/A,,Overcast,140,2012-10-13 22:55:00
6:15 PM,73.4,62.6,69,30.16,10.0,SE,3.5,-,N/A,,Overcast,130,2012-10-13 23:15:00
6:35 PM,71.6,62.6,73,30.16,10.0,SE,5.8,-,N/A,,Mostly Cloudy,140,2012-10-13 23:35:00
7:55 PM,69.8,60.8,73,30.17,10.0,SE,8.1,-,N/A,,Scattered Clouds,140,2012-10-14 00:55:00
8:15 PM,69.8,60.8,73,30.17,10.0,SSE,6.9,-,N/A,,Clear,150,2012-10-14 01:15:00
8:35 PM,69.8,60.8,73,30.17,10.0,SE,6.9,-,N/A,,Scattered Clouds,140,2012-10-14 01:35:00
9:15 PM,69.8,60.8,73,30.17,10.0,SSE,5.8,-,N/A,,Clear,150,2012-10-14 02:15:00
9:35 PM,68.0,60.8,78,30.16,10.0,SSE,8.1,-,N/A,,Clear,150,2012-10-14 02:35:00
9:55 PM,68.0,60.8,78,30.15,10.0,SSE,8.1,-,N/A,,Clear,150,2012-10-14 02:55:00
10:15 PM,68.0,60.8,78,30.16,10.0,SSE,9.2,-,N/A,,Clear,150,2012-10-14 03:15:00
10:35 PM,68.0,59.0,73,30.16,10.0,SSE,9.2,16.1,N/A,,Clear,150,2012-10-14 03:35:00
10:55 PM,68.0,59.0,73,30.16,10.0,SSE,12.7,23.0,N/A,,Clear,150,2012-10-14 03:55:00
11:15 PM,68.0,57.2,68,30.16,10.0,SSE,11.5,23.0,N/A,,Clear,160,2012-10-14 04:15:00
11:35 PM,68.0,57.2,68,30.15,10.0,SSE,13.8,23.0,N/A,,Clear,150,2012-10-14 04:35:00